When you browse on this site, cookies collect data to enhance your experience and personalize the content and advertising you see.
Visit our Privacy Policy to learn more. By continuing to use the site, you agree to this use of cookies and data.
  • En España
  • Lista de países
  • Para 7 días
  • Temperatura del agua
  • Mapa Satelital
  • El tiempo en el mapa
  • Informadores
  • user-avatar
    Iniciar sesión

    Tiempo cada hora Grinevo

    Hoy, 23 Mayo, Jueves

    Tiempo Temperatura Precipitaciones Viento Presión Humedad
    00:00 +14°C° 0 mm 0 mps 736 mmHg 85%
    01:00 +14°C° 0 mm 0 mps 735 mmHg 86%
    02:00 +14°C° 0 mm 1 mps 735 mmHg 87%
    03:00 +14°C° 0 mm 1 mps 735 mmHg 87%
    04:00 +15°C° 0 mm 1 mps 735 mmHg 87%
    05:00 +15°C° 0 mm 1 mps 735 mmHg 87%
    06:00 +16°C° 0 mm 1 mps 735 mmHg 81%
    07:00 +18°C° 0 mm 2 mps 735 mmHg 76%
    08:00 +20°C° 0 mm 2 mps 736 mmHg 70%
    09:00 +21°C° 0 mm 2 mps 736 mmHg 66%
    10:00 +22°C° 0 mm 3 mps 735 mmHg 61%
    11:00 +24°C° 0 mm 3 mps 735 mmHg 56%
    12:00 +25°C° 0 mm 4 mps 735 mmHg 56%
    13:00 +25°C° 0 mm 4 mps 735 mmHg 55%
    14:00 +25°C° 0 mm 4 mps 735 mmHg 54%
    15:00 +25°C° 0.3 mm 4 mps 735 mmHg 59%
    16:00 +24°C° 0.3 mm 3 mps 735 mmHg 64%
    17:00 +24°C° 0.3 mm 3 mps 734 mmHg 69%
    18:00 +21°C° 0.1 mm 3 mps 734 mmHg 73%
    19:00 +19°C° 0.1 mm 2 mps 734 mmHg 78%
    20:00 +18°C° 0.1 mm 2 mps 735 mmHg 83%
    21:00 +17°C° 0 mm 2 mps 735 mmHg 85%
    22:00 +16°C° 0 mm 1 mps 735 mmHg 87%
    23:00 +16°C° 0 mm 1 mps 735 mmHg 89%

    Mañana, 24 Mayo, Viernes

    Tiempo Temperatura Precipitaciones Viento Presión Humedad
    00:00 +15°C° 0 mm 1 mps 735 mmHg 90%
    01:00 +15°C° 0 mm 1 mps 735 mmHg 90%
    02:00 +15°C° 0 mm 1 mps 735 mmHg 91%
    03:00 +15°C° 0.1 mm 1 mps 735 mmHg 92%
    04:00 +15°C° 0.1 mm 1 mps 736 mmHg 93%
    05:00 +15°C° 0.1 mm 1 mps 736 mmHg 94%
    06:00 +16°C° 0.1 mm 1 mps 736 mmHg 91%
    07:00 +17°C° 0.1 mm 2 mps 736 mmHg 88%
    08:00 +18°C° 0.1 mm 2 mps 736 mmHg 85%
    09:00 +19°C° 0.8 mm 3 mps 736 mmHg 83%
    10:00 +20°C° 0.8 mm 3 mps 737 mmHg 81%
    11:00 +20°C° 0.8 mm 3 mps 737 mmHg 79%
    12:00 +20°C° 1.2 mm 4 mps 737 mmHg 79%
    13:00 +20°C° 1.2 mm 4 mps 737 mmHg 78%
    14:00 +20°C° 1.2 mm 4 mps 737 mmHg 78%
    15:00 +20°C° 0.7 mm 4 mps 736 mmHg 81%
    16:00 +20°C° 0.7 mm 4 mps 736 mmHg 83%
    17:00 +19°C° 0.7 mm 4 mps 736 mmHg 85%
    18:00 +18°C° 0.2 mm 4 mps 736 mmHg 87%
    19:00 +17°C° 0.2 mm 3 mps 736 mmHg 90%
    20:00 +16°C° 0.2 mm 3 mps 736 mmHg 93%
    21:00 +16°C° 0 mm 3 mps 736 mmHg 94%
    22:00 +14°C° 0 mm 3 mps 736 mmHg 95%
    23:00 +14°C° 0 mm 3 mps 735 mmHg 97%

    Pasado mañana, 25 Mayo, Sábado

    Tiempo Temperatura Precipitaciones Viento Presión Humedad
    00:00 +13°C° 0.1 mm 3 mps 735 mmHg 97%
    01:00 +13°C° 0.1 mm 3 mps 735 mmHg 97%
    02:00 +13°C° 0.1 mm 3 mps 735 mmHg 98%
    03:00 +13°C° 0.2 mm 3 mps 735 mmHg 97%
    04:00 +14°C° 0.2 mm 2 mps 735 mmHg 97%
    05:00 +14°C° 0.2 mm 2 mps 734 mmHg 96%
    06:00 +16°C° 0.2 mm 2 mps 734 mmHg 91%
    07:00 +18°C° 0.2 mm 2 mps 734 mmHg 85%
    08:00 +20°C° 0.2 mm 2 mps 735 mmHg 80%
    09:00 +20°C° 1.4 mm 3 mps 734 mmHg 76%
    10:00 +21°C° 1.4 mm 3 mps 734 mmHg 72%
    11:00 +22°C° 1.4 mm 3 mps 734 mmHg 69%
    12:00 +22°C° 0.9 mm 3 mps 734 mmHg 68%
    13:00 +23°C° 0.9 mm 2 mps 733 mmHg 67%
    14:00 +23°C° 0.9 mm 1 mps 733 mmHg 65%
    15:00 +22°C° 1.1 mm 1 mps 733 mmHg 69%
    16:00 +22°C° 1.1 mm 1 mps 732 mmHg 73%
    17:00 +21°C° 1.1 mm 1 mps 732 mmHg 77%
    18:00 +20°C° 0.5 mm 1 mps 732 mmHg 81%
    19:00 +19°C° 0.5 mm 1 mps 732 mmHg 84%
    20:00 +16°C° 0.5 mm 1 mps 732 mmHg 88%
    21:00 +16°C° 0 mm 1 mps 732 mmHg 90%
    22:00 +15°C° 0 mm 2 mps 732 mmHg 92%
    23:00 +14°C° 0 mm 2 mps 732 mmHg 94%

    26 Mayo, Domingo

    Tiempo Temperatura Precipitaciones Viento Presión Humedad
    00:00 +14°C° 0 mm 2 mps 732 mmHg 94%
    01:00 +12°C° 0 mm 3 mps 732 mmHg 94%
    02:00 +11°C° 0 mm 3 mps 732 mmHg 95%
    03:00 +11°C° 0 mm 3 mps 732 mmHg 95%
    04:00 +10°C° 0 mm 3 mps 732 mmHg 95%
    05:00 +10°C° 0 mm 4 mps 732 mmHg 95%
    06:00 +11°C° 0 mm 4 mps 732 mmHg 90%
    07:00 +11°C° 0 mm 4 mps 733 mmHg 84%
    08:00 +12°C° 0 mm 4 mps 733 mmHg 79%
    09:00 +13°C° 0 mm 4 mps 733 mmHg 75%
    10:00 +14°C° 0 mm 5 mps 733 mmHg 71%
    11:00 +15°C° 0 mm 5 mps 733 mmHg 67%
    12:00 +16°C° 0 mm 5 mps 733 mmHg 65%
    13:00 +17°C° 0 mm 5 mps 732 mmHg 64%
    14:00 +17°C° 0 mm 5 mps 732 mmHg 62%
    15:00 +17°C° 0.1 mm 5 mps 732 mmHg 64%
    16:00 +18°C° 0.1 mm 4 mps 732 mmHg 66%
    17:00 +18°C° 0.1 mm 4 mps 732 mmHg 68%
    18:00 +17°C° 0.3 mm 4 mps 731 mmHg 74%
    19:00 +14°C° 0.3 mm 4 mps 731 mmHg 79%
    20:00 +13°C° 0.3 mm 4 mps 731 mmHg 85%
    21:00 +12°C° 0.7 mm 4 mps 731 mmHg 87%
    22:00 +10°C° 0.7 mm 5 mps 731 mmHg 90%
    23:00 +8°C° 0.7 mm 5 mps 731 mmHg 93%

    27 Mayo, Lunes

    Tiempo Temperatura Precipitaciones Viento Presión Humedad
    00:00 +8°C° 0 mm 5 mps 731 mmHg 93%
    01:00 +8°C° 0 mm 5 mps 731 mmHg 93%
    02:00 +7°C° 0 mm 5 mps 731 mmHg 92%
    03:00 +7°C° 0 mm 5 mps 732 mmHg 93%
    04:00 +6°C° 0 mm 5 mps 732 mmHg 93%
    05:00 +6°C° 0 mm 5 mps 732 mmHg 93%
    06:00 +6°C° 0 mm 5 mps 733 mmHg 90%
    07:00 +5°C° 0 mm 6 mps 733 mmHg 88%
    08:00 +5°C° 0 mm 6 mps 734 mmHg 85%
    09:00 +8°C° 0 mm 7 mps 734 mmHg 79%
    10:00 +10°C° 0 mm 7 mps 735 mmHg 72%
    11:00 +11°C° 0 mm 7 mps 735 mmHg 66%
    12:00 +11°C° 0 mm 7 mps 736 mmHg 68%
    13:00 +11°C° 0 mm 7 mps 736 mmHg 70%
    14:00 +11°C° 0 mm 7 mps 737 mmHg 71%
    15:00 +13°C° 0 mm 6 mps 737 mmHg 71%
    16:00 +13°C° 0 mm 5 mps 737 mmHg 71%
    17:00 +14°C° 0 mm 5 mps 738 mmHg 71%
    18:00 +12°C° 0 mm 4 mps 738 mmHg 77%
    19:00 +11°C° 0 mm 4 mps 738 mmHg 82%
    20:00 +10°C° 0 mm 3 mps 739 mmHg 88%
    21:00 +10°C° 0 mm 3 mps 739 mmHg 89%
    22:00 +9°C° 0 mm 3 mps 739 mmHg 91%
    23:00 +8°C° 0 mm 2 mps 739 mmHg 93%

    28 Mayo, Martes

    Tiempo Temperatura Precipitaciones Viento Presión Humedad
    00:00 +8°C° 0 mm 2 mps 739 mmHg 93%
    01:00 +8°C° 0 mm 2 mps 740 mmHg 93%
    02:00 +8°C° 0 mm 3 mps 740 mmHg 94%
    03:00 +8°C° 0 mm 3 mps 740 mmHg 93%
    04:00 +8°C° 0 mm 3 mps 740 mmHg 92%
    05:00 +9°C° 0 mm 3 mps 740 mmHg 92%
    06:00 +11°C° 0 mm 3 mps 740 mmHg 86%
    07:00 +13°C° 0 mm 3 mps 740 mmHg 81%
    08:00 +15°C° 0 mm 4 mps 740 mmHg 76%
    09:00 +17°C° 0 mm 4 mps 740 mmHg 72%
    10:00 +17°C° 0 mm 5 mps 740 mmHg 68%
    11:00 +19°C° 0 mm 5 mps 740 mmHg 64%
    12:00 +19°C° 0.2 mm 5 mps 739 mmHg 71%
    13:00 +17°C° 0.2 mm 5 mps 739 mmHg 77%
    14:00 +17°C° 0.2 mm 4 mps 739 mmHg 84%
    15:00 +15°C° 0.6 mm 5 mps 738 mmHg 86%
    16:00 +15°C° 0.6 mm 5 mps 738 mmHg 88%
    17:00 +15°C° 0.6 mm 6 mps 737 mmHg 90%
    18:00 +15°C° 0.1 mm 6 mps 737 mmHg 89%
    19:00 +16°C° 0.1 mm 6 mps 736 mmHg 89%
    20:00 +17°C° 0.1 mm 7 mps 736 mmHg 89%
    21:00 +17°C° 1.9 mm 6 mps 736 mmHg 91%
    22:00 +17°C° 1.9 mm 6 mps 736 mmHg 92%
    23:00 +17°C° 1.9 mm 5 mps 736 mmHg 94%
    Mostrar más